Погода в Лисице

Россия / Томская область     58°42′01″N   85°13′28″E
темп.,
°C
ветер,
м/с
пор.,
м/с
влажн.,
%
обл.,
%
осадки,
мм/ч
давл.,
гПа
погр.,
м
4 марта, чт
чт401:00−13ююв41094100 0.3 1017356
04:00−13ю51294100 0.1 1015440
07:00−13ю51392100 0.1 1015576
10:00−11ююз61294100 0.6 1013692
13:00−10ююз61193100 1.5 1013760
16:00−8ю51193100 0.9 1012808
19:00−7ю41194100 1.4 1011735
22:00−6ю51294100 0.3 1010719
5 марта, пт
пт501:00−6ю51195100 0.9 1008762
04:00−5ю51295100 1.0 1005796
07:00−4ю61295100 2.3 1004863
10:00−5ююз61390100 0.5 1004794
13:00−4ююз61193100 0.9 1004785
16:00−4ююз61195100 0.7 1003840
19:00−5ююз51095100 2.0 1005764
22:00−3зюз71386100 0.6 1006924
6 марта, сб
сб601:00−7ююз51295100 0.9 1008923
04:00−6ююз51193100 0.9 1007880
07:00−6ююз41195100 1.4 1007702
10:00−4ююз51194100 0.7 1005790
13:00−2ююз51094100 1.5 1004901
16:00−2ююз51095100 0.7 1003859
19:00−4ююз51195100 1.4 1003786
22:00−4ююз51295100 0.8 1001789
7 марта, вс
вс701:00−3ююз51296100 1.9 1001848
04:00−5зюз61290100 0.5 1002923
07:00−7зюз51194100 0.8 1006709
10:00−10зюз61191100 0.1 1009770
13:00−9зюз5990100 0.3 1012750
16:00−8зюз5985100 0.1 1013974
19:00−10ююз2692100 0.2 1013149
22:00−9ю2796100 0.1 1012296
8 марта, пн
пн801:00−8юв3796100 0.6 1009282
04:00−8вюв4895100 1.4 1004397
07:00−2ююз51296100 3.2 1002932
10:000юз71490100 0.8 10001260
13:00−3з61189100 2.1 1003857
16:00−6зсз4790100 0.1 1006740
19:00−8зсз2593100 0.1 1008158
22:00−13сз239488 0.0 101020